User: anonymous   Login
Location: Lussas
(44.6119°N, 4.4726°E)
Time: 07:54:05
(UTC+00:00)
Language:

Meteor 1-4 Rocket - Orbit

View from above orbital plane
View from above orbital plane
View from above satellite
View from above satellite

Ground track
Ground track

The orbit data is extracted from the following two-line orbital elements,

1 04394U 70037B   21057.87995510  .00001811  00000-0  59051-4 0  9991
2 04394  81.2401 225.9441 0038163 181.9620 178.1473 15.30500397771675
Epoch (UTC): 26 February 2021 21:07:08
Eccentricity: 0.0038163
inclination: 81.2401°
perigee height: 448 km
apogee height: 500 km
right ascension of ascending node: 225.9441°
argument of perigee: 181.9620°
revolutions per day: 15.30500397
mean anomaly at epoch: 178.1473°
orbit number at epoch: 77167

The dashed part of the orbit path shows where the satellite is in the earth's shadow,  

DLR